User: anonymous   Login
Location: Unspecified
(0.0000°N, 0.0000°E)
Time: 11:03:59
(UTC+00:00)
Language:

CANX 3A (UNIBRITE) - Orbit

View from above orbital plane
View from above orbital plane
View from above satellite
View from above satellite

Ground track
Ground track

The orbit data is extracted from the following two-line orbital elements,

1 39092U 13009G   15086.76881311  .00000287  00000-0  11704-3 0  9994
2 39092 098.6088 285.4510 0009341 181.5343 178.5815 14.34723471108977
Epoch (UTC): 27 March 2015 18:27:05
Eccentricity: 0.0009341
inclination: 98.6088°
perigee height: 769 km
apogee height: 782 km
right ascension of ascending node: 285.4510°
argument of perigee: 181.5343°
revolutions per day: 14.34723471
mean anomaly at epoch: 178.5815°
orbit number at epoch: 10897

The dashed part of the orbit path shows where the satellite is in the earth's shadow,  

DLR